UAL608 KSFO-PHKO

Flight info

Callsign UAL608
Flight time N/A
Altitude 30000
Route GNNRR3 BEBOP R464 BARAZ/N0441F320 R464 BITTA ONOHI VECKI9
Aircraft A21N/M-SDE2E3FGHIRWXY/LB1

Departure

Time N/A
Airport San Francisco International Airport (KSFO)

Arrival

Time 2026-04-29 23:22
Airport Ellison Onizuka Kona International Airport at Keāhole (PHKO)
Time Latitude Longitude Altitude Speed Heading
2026-04-29 21:58 27.31582 -149.05377 41764 ft 471 kts 236°
2026-04-29 21:58 27.29793 -149.08487 40241 ft 476 kts 235°
2026-04-29 21:58 27.27992 -149.11626 39154 ft 476 kts 235°
2026-04-29 21:59 27.26272 -149.14680 39041 ft 458 kts 238°
2026-04-29 21:59 27.24806 -149.17784 39146 ft 446 kts 242°
2026-04-29 21:59 27.22008 -149.24013 39148 ft 445 kts 236°
2026-04-29 22:00 27.18577 -149.29800 39138 ft 446 kts 235°
2026-04-29 22:00 27.15400 -149.35791 39142 ft 446 kts 237°
2026-04-29 22:01 27.12104 -149.41690 39140 ft 446 kts 235°
2026-04-29 22:01 27.08851 -149.47631 39134 ft 447 kts 236°
2026-04-29 22:02 27.05575 -149.53562 39141 ft 447 kts 236°
2026-04-29 22:02 27.02299 -149.59498 39137 ft 448 kts 236°
2026-04-29 22:03 26.99015 -149.65438 39130 ft 448 kts 236°
2026-04-29 22:03 26.95728 -149.71369 39135 ft 448 kts 236°
2026-04-29 22:04 26.92465 -149.77263 39135 ft 447 kts 236°
2026-04-29 22:04 26.89177 -149.83178 39134 ft 447 kts 236°
2026-04-29 22:05 26.85890 -149.89096 39132 ft 447 kts 236°
2026-04-29 22:06 26.80957 -149.97954 39124 ft 447 kts 236°
2026-04-29 22:06 26.77667 -150.03849 39126 ft 447 kts 236°
2026-04-29 22:07 26.74378 -150.09746 39129 ft 447 kts 236°
2026-04-29 22:07 26.71081 -150.15629 39126 ft 446 kts 236°
2026-04-29 22:08 26.67798 -150.21521 39125 ft 446 kts 236°
2026-04-29 22:08 26.64497 -150.27381 39123 ft 445 kts 236°
2026-04-29 22:09 26.61206 -150.33241 39122 ft 445 kts 236°
2026-04-29 22:09 26.57919 -150.39094 39124 ft 444 kts 236°
2026-04-29 22:10 26.54632 -150.44938 39117 ft 444 kts 236°
2026-04-29 22:10 26.51343 -150.50765 39119 ft 443 kts 236°
2026-04-29 22:11 26.48068 -150.56575 39113 ft 448 kts 236°
2026-04-29 22:11 26.44714 -150.62506 39122 ft 455 kts 236°
2026-04-29 22:12 26.41307 -150.68531 39111 ft 463 kts 236°
2026-04-29 22:12 26.37836 -150.74654 39117 ft 470 kts 236°
2026-04-29 22:13 26.34335 -150.80829 39110 ft 471 kts 236°
2026-04-29 22:13 26.30838 -150.86984 39112 ft 469 kts 236°
2026-04-29 22:14 26.27343 -150.93124 39112 ft 468 kts 236°
2026-04-29 22:14 26.23858 -150.99245 39116 ft 468 kts 236°
2026-04-29 22:15 26.20377 -151.05359 39110 ft 467 kts 236°
2026-04-29 22:15 26.18289 -151.08083 39172 ft 462 kts 217°
2026-04-29 22:15 26.15693 -151.10222 39138 ft 467 kts 214°
2026-04-29 22:16 26.10523 -151.14547 39101 ft 464 kts 219°
2026-04-29 22:16 26.05474 -151.19010 39109 ft 464 kts 217°
2026-04-29 22:17 26.01206 -151.22614 39105 ft 464 kts 218°
2026-04-29 22:17 25.95253 -151.27774 39103 ft 464 kts 218°
2026-04-29 22:18 25.91001 -151.31413 39100 ft 464 kts 218°
2026-04-29 22:18 25.85070 -151.36518 39100 ft 464 kts 218°
2026-04-29 22:19 25.80787 -151.40185 39099 ft 464 kts 218°
2026-04-29 22:19 25.75680 -151.44564 39094 ft 464 kts 218°
2026-04-29 22:20 25.70569 -151.48939 39095 ft 464 kts 218°
2026-04-29 22:20 25.65461 -151.53306 39094 ft 464 kts 218°
2026-04-29 22:21 25.60346 -151.57675 39099 ft 464 kts 218°
2026-04-29 22:21 25.55229 -151.62038 39091 ft 464 kts 218°
2026-04-29 22:22 25.50111 -151.66402 39100 ft 464 kts 218°
2026-04-29 22:22 25.44992 -151.70758 39093 ft 464 kts 218°
2026-04-29 22:23 25.39870 -151.75114 39094 ft 464 kts 218°
2026-04-29 22:23 25.34745 -151.79466 39095 ft 464 kts 218°
2026-04-29 22:24 25.29654 -151.83786 39088 ft 465 kts 218°
2026-04-29 22:24 25.24529 -151.88129 39090 ft 464 kts 218°
2026-04-29 22:25 25.19396 -151.92474 39085 ft 465 kts 218°
2026-04-29 22:25 25.14268 -151.96810 39086 ft 464 kts 218°
2026-04-29 22:26 25.09149 -152.01134 39083 ft 463 kts 218°
2026-04-29 22:26 25.04033 -152.05452 39079 ft 463 kts 218°
2026-04-29 22:27 24.98914 -152.09765 39080 ft 462 kts 218°
2026-04-29 22:27 24.93800 -152.14059 39077 ft 462 kts 218°
2026-04-29 22:28 24.88695 -152.18367 39075 ft 462 kts 218°
2026-04-29 22:28 24.83591 -152.22648 39081 ft 461 kts 218°
2026-04-29 22:29 24.78529 -152.26899 39070 ft 461 kts 218°
2026-04-29 22:29 24.73437 -152.31167 39078 ft 459 kts 218°
2026-04-29 22:30 24.68363 -152.35419 39072 ft 459 kts 218°
2026-04-29 22:30 24.63284 -152.39666 39076 ft 458 kts 218°
2026-04-29 22:31 24.58212 -152.43906 39071 ft 457 kts 219°
2026-04-29 22:31 24.53151 -152.48131 39074 ft 456 kts 219°
2026-04-29 22:32 24.48097 -152.52347 39065 ft 456 kts 219°
2026-04-29 22:32 24.43049 -152.56551 39074 ft 455 kts 219°
2026-04-29 22:33 24.38008 -152.60749 39069 ft 455 kts 219°
2026-04-29 22:33 24.32970 -152.64937 39069 ft 454 kts 219°
2026-04-29 22:34 24.27943 -152.69113 39061 ft 453 kts 219°
2026-04-29 22:34 24.22935 -152.73268 39070 ft 451 kts 219°
2026-04-29 22:35 24.17930 -152.77417 39060 ft 451 kts 219°
2026-04-29 22:35 24.12931 -152.81557 39065 ft 450 kts 219°
2026-04-29 22:36 24.07934 -152.85690 39051 ft 450 kts 219°
2026-04-29 22:36 24.02976 -152.89788 39061 ft 449 kts 219°
2026-04-29 22:37 23.97990 -152.93905 39048 ft 449 kts 219°
2026-04-29 22:37 23.93011 -152.98012 39062 ft 448 kts 219°
2026-04-29 22:38 23.88033 -153.02113 39051 ft 448 kts 219°
2026-04-29 22:38 23.83062 -153.06205 39059 ft 447 kts 219°
2026-04-29 22:39 23.78091 -153.10293 39055 ft 447 kts 219°
2026-04-29 22:39 23.73131 -153.14368 39046 ft 446 kts 219°
2026-04-29 22:40 23.68169 -153.18441 39048 ft 446 kts 219°
2026-04-29 22:40 23.63212 -153.22507 39049 ft 446 kts 219°
2026-04-29 22:41 23.58254 -153.26566 39042 ft 446 kts 219°
2026-04-29 22:41 23.53297 -153.30623 39045 ft 445 kts 219°
2026-04-29 22:42 23.48347 -153.34671 39043 ft 445 kts 219°
2026-04-29 22:42 23.43400 -153.38711 39043 ft 444 kts 219°
2026-04-29 22:43 23.38503 -153.42708 39040 ft 443 kts 219°
2026-04-29 22:43 23.33579 -153.46722 39046 ft 442 kts 219°
2026-04-29 22:44 23.28656 -153.50732 39035 ft 442 kts 219°
2026-04-29 22:44 23.23735 -153.54735 39041 ft 441 kts 219°
2026-04-29 22:45 23.18818 -153.58733 39037 ft 441 kts 219°
2026-04-29 22:45 23.13908 -153.62721 39037 ft 440 kts 219°
2026-04-29 22:46 23.08999 -153.66704 39037 ft 440 kts 219°
2026-04-29 22:46 23.04114 -153.70663 38786 ft 431 kts 219°
2026-04-29 22:46 23.01753 -153.72573 38781 ft 418 kts 219°
2026-04-29 22:47 22.99418 -153.74467 38881 ft 420 kts 219°
2026-04-29 22:47 22.94700 -153.78287 38997 ft 426 kts 219°
2026-04-29 22:48 22.89901 -153.82166 39034 ft 434 kts 219°
2026-04-29 22:48 22.85013 -153.86114 39029 ft 441 kts 219°
2026-04-29 22:49 22.80087 -153.90088 39024 ft 441 kts 219°
2026-04-29 22:49 22.75200 -153.94028 39025 ft 441 kts 219°
2026-04-29 22:50 22.70238 -153.98029 39012 ft 449 kts 221°
2026-04-29 22:50 22.65243 -154.02043 39010 ft 446 kts 221°
2026-04-29 22:51 22.60256 -154.06057 39017 ft 447 kts 221°
2026-04-29 22:51 22.52768 -154.12068 39019 ft 447 kts 221°
2026-04-29 22:52 22.47774 -154.16076 39021 ft 447 kts 221°
2026-04-29 22:52 22.42780 -154.20077 39024 ft 446 kts 221°
2026-04-29 22:53 22.37788 -154.24074 39022 ft 447 kts 221°
2026-04-29 22:53 22.32795 -154.28068 39014 ft 447 kts 221°
2026-04-29 22:54 22.27799 -154.32061 39015 ft 446 kts 221°
2026-04-29 22:54 22.22809 -154.36046 39012 ft 446 kts 221°
2026-04-29 22:55 22.17817 -154.40028 39009 ft 446 kts 221°
2026-04-29 22:55 22.12831 -154.44003 39009 ft 446 kts 221°
2026-04-29 22:56 22.07847 -154.47971 39008 ft 445 kts 221°
2026-04-29 22:56 22.02872 -154.51930 39002 ft 444 kts 221°
2026-04-29 22:57 21.97925 -154.55863 39002 ft 445 kts 221°
2026-04-29 22:57 21.92946 -154.59816 39007 ft 445 kts 221°
2026-04-29 22:58 21.87964 -154.63771 38997 ft 445 kts 221°
2026-04-29 22:58 21.82988 -154.67715 38996 ft 444 kts 221°
2026-04-29 22:59 21.78007 -154.71661 38997 ft 444 kts 222°
2026-04-29 22:59 21.73034 -154.75595 38988 ft 443 kts 222°
2026-04-29 23:00 21.68062 -154.79528 38995 ft 443 kts 222°
2026-04-29 23:00 21.63093 -154.83453 38994 ft 443 kts 222°
2026-04-29 23:01 21.58127 -154.87373 38995 ft 443 kts 222°
2026-04-29 23:01 21.53196 -154.91262 38997 ft 443 kts 222°
2026-04-29 23:02 21.48233 -154.95172 38993 ft 442 kts 222°
2026-04-29 23:02 21.43278 -154.99073 38991 ft 441 kts 222°
2026-04-29 23:03 21.38335 -155.02962 38986 ft 440 kts 222°
2026-04-29 23:03 21.33393 -155.06846 38989 ft 440 kts 222°
2026-04-29 23:04 21.28451 -155.10727 38990 ft 440 kts 222°
2026-04-29 23:04 21.23511 -155.14602 38990 ft 440 kts 222°
2026-04-29 23:05 21.18576 -155.18471 38984 ft 440 kts 222°
2026-04-29 23:05 21.13638 -155.22339 38989 ft 440 kts 222°
2026-04-29 23:06 21.08693 -155.26209 38988 ft 440 kts 222°
2026-04-29 23:06 21.03756 -155.30068 38900 ft 434 kts 223°
2026-04-29 23:07 21.01324 -155.31969 37811 ft 436 kts 222°
2026-04-29 23:07 20.98853 -155.33910 36607 ft 442 kts 221°
2026-04-29 23:07 20.96443 -155.35780 36324 ft 427 kts 221°
2026-04-29 23:07 20.94822 -155.37041 35767 ft 427 kts 221°
2026-04-29 23:08 20.92421 -155.38921 34927 ft 428 kts 221°
2026-04-29 23:08 20.89239 -155.41408 33797 ft 428 kts 220°
2026-04-29 23:08 20.86826 -155.43285 32878 ft 429 kts 220°
2026-04-29 23:08 20.85195 -155.44554 32273 ft 429 kts 220°
2026-04-29 23:09 20.82778 -155.46439 31404 ft 431 kts 220°
2026-04-29 23:09 20.80337 -155.48342 30560 ft 436 kts 219°
2026-04-29 23:09 20.77870 -155.50262 29658 ft 441 kts 219°
2026-04-29 23:09 20.75381 -155.52196 28713 ft 443 kts 219°
2026-04-29 23:10 20.72914 -155.54114 27810 ft 446 kts 219°
2026-04-29 23:10 20.70410 -155.56062 26925 ft 443 kts 219°
2026-04-29 23:10 20.67930 -155.57988 26072 ft 439 kts 219°
2026-04-29 23:10 20.65471 -155.59897 25236 ft 435 kts 219°
2026-04-29 23:11 20.63034 -155.61790 24430 ft 431 kts 219°
2026-04-29 23:11 20.60618 -155.63665 23639 ft 428 kts 219°
2026-04-29 23:11 20.58221 -155.65525 22721 ft 424 kts 219°
2026-04-29 23:11 20.55840 -155.67371 21826 ft 421 kts 219°
2026-04-29 23:12 20.53480 -155.69201 20956 ft 418 kts 219°
2026-04-29 23:12 20.51140 -155.71014 20117 ft 415 kts 219°
2026-04-29 23:12 20.48815 -155.72816 19301 ft 412 kts 219°
2026-04-29 23:12 20.46504 -155.74604 18503 ft 409 kts 219°
2026-04-29 23:13 20.44218 -155.76376 17938 ft 399 kts 219°
2026-04-29 23:13 20.42040 -155.78059 17953 ft 374 kts 219°
2026-04-29 23:13 20.39990 -155.79641 17845 ft 355 kts 219°
2026-04-29 23:13 20.37994 -155.81186 17126 ft 356 kts 219°
2026-04-29 23:14 20.35996 -155.82733 16536 ft 353 kts 219°
2026-04-29 23:14 20.34016 -155.84260 15965 ft 349 kts 219°
2026-04-29 23:14 20.32118 -155.85851 15368 ft 346 kts 225°
2026-04-29 23:14 20.30399 -155.87619 14815 ft 341 kts 228°
2026-04-29 23:15 20.28498 -155.89116 14282 ft 343 kts 205°
2026-04-29 23:15 20.26318 -155.89985 14225 ft 325 kts 202°
2026-04-29 23:15 20.24257 -155.90779 14216 ft 305 kts 203°
2026-04-29 23:15 20.22314 -155.91535 14004 ft 294 kts 202°
2026-04-29 23:16 20.20378 -155.92279 13460 ft 295 kts 202°
2026-04-29 23:16 20.18486 -155.93002 13033 ft 292 kts 202°
2026-04-29 23:16 20.16558 -155.93741 12587 ft 289 kts 202°
2026-04-29 23:16 20.14675 -155.94466 12151 ft 286 kts 202°
2026-04-29 23:17 20.12835 -155.95172 11737 ft 283 kts 201°
2026-04-29 23:17 20.10987 -155.95880 11319 ft 281 kts 201°
2026-04-29 23:17 20.09158 -155.96588 10915 ft 278 kts 201°
2026-04-29 23:17 20.07346 -155.97284 10501 ft 276 kts 201°
2026-04-29 23:18 20.05545 -155.97971 10061 ft 275 kts 200°
2026-04-29 23:18 20.03714 -155.98672 9311 ft 285 kts 200°
2026-04-29 23:18 20.01822 -155.99396 8552 ft 293 kts 200°
2026-04-29 23:18 19.99898 -156.00135 7802 ft 288 kts 199°
2026-04-29 23:19 19.98075 -156.00835 7076 ft 271 kts 199°
2026-04-29 23:19 19.96311 -156.01509 6390 ft 273 kts 199°
2026-04-29 23:19 19.94491 -156.02205 5641 ft 283 kts 199°
2026-04-29 23:19 19.92600 -156.02871 4922 ft 290 kts 189°
2026-04-29 23:20 19.90582 -156.03115 4153 ft 296 kts 183°
2026-04-29 23:20 19.88483 -156.03257 3246 ft 308 kts 182°
2026-04-29 23:20 19.86365 -156.03433 2919 ft 297 kts 184°
2026-04-29 23:20 19.84385 -156.03627 2915 ft 275 kts 185°
2026-04-29 23:21 19.82484 -156.03802 2223 ft 273 kts 184°
2026-04-29 23:21 19.80656 -156.03954 1303 ft 254 kts 185°
2026-04-29 23:21 19.78958 -156.04085 622 ft 231 kts 187°
2026-04-29 23:21 19.77534 -156.04230 454 ft 185 kts 188°
2026-04-29 23:22 19.76332 -156.04340 261 ft 165 kts 187°
2026-04-29 23:22 19.75237 -156.04440 52 ft 149 kts 188°
2026-04-29 23:22 19.74322 -156.04536 46 ft 110 kts 185°
2026-04-29 23:22 19.73822 -156.04580 46 ft 37 kts 184°
2026-04-29 23:23 19.73641 -156.04574 44 ft 15 kts 145°
2026-04-29 23:23 19.73608 -156.04498 45 ft 9 kts 98°
2026-04-29 23:23 19.73603 -156.04444 45 ft 5 kts 94°
2026-04-29 23:23 19.73602 -156.04415 45 ft 3 kts 93°
2026-04-29 23:24 19.73599 -156.04372 45 ft 8 kts 96°
2026-04-29 23:24 19.73576 -156.04338 46 ft 4 kts 154°
2026-04-29 23:24 19.73551 -156.04328 46 ft 4 kts 141°
2026-04-29 23:24 19.73547 -156.04295 47 ft 6 kts 91°
2026-04-29 23:25 19.73545 -156.04274 47 ft 1 kts 96°
2026-04-29 23:25 19.73543 -156.04250 49 ft 6 kts 95°
2026-04-29 23:25 19.73542 -156.04239 49 ft 0 kts 95°